| time (UTC) | temp F | wind direction | speed MPH | gust MPH | rain 1hr in | rain 24hr in | rain mn in | humidity % | barometer mb |
| 20260902182557 | 85 | 250 | 2.0 | 6.0 | 0.02 | 1.45 | 1.04 | 79 | 1015.3 |
| 20260902182058 | 85 | 256 | 1.0 | 5.0 | 0.05 | 1.45 | 1.04 | 81 | 1015.3 |
| 20260902181624 | 85 | 0 | 0.0 | 3.0 | 0.15 | 1.45 | 1.04 | 84 | 1015.4 |
| 20260902181100 | 84 | 0 | 0.0 | 3.0 | 0.49 | 1.45 | 1.04 | 85 | 1015.3 |
| 20260902180559 | 83 | 0 | 0.0 | 3.0 | 0.79 | 1.45 | 1.04 | 86 | 1015.3 |
| 20260902175558 | 82 | 0 | 0.0 | 4.0 | 1.04 | 1.45 | 1.04 | 85 | 1015.5 |
| 20260902175059 | 82 | 96 | 1.0 | 4.0 | 1.04 | 1.45 | 1.04 | 85 | 1015.7 |
| 20260902174606 | 83 | 99 | 0.0 | 4.0 | 1.04 | 1.45 | 1.04 | 87 | 1015.8 |
| 20260902174058 | 82 | 102 | 1.0 | 4.0 | 1.04 | 1.45 | 1.04 | 85 | 1015.7 |
| 20260902173558 | 81 | 59 | 2.0 | 6.0 | 1.04 | 1.45 | 1.04 | 84 | 1015.8 |
| 20260902173109 | 81 | 103 | 1.0 | 8.0 | 1.04 | 1.44 | 1.04 | 83 | 1015.9 |
| 20260902172557 | 81 | 93 | 3.0 | 8.0 | 1.03 | 1.43 | 1.03 | 82 | 1015.8 |
| 20260902172101 | 82 | 82 | 2.0 | 8.0 | 1.00 | 1.40 | 1.00 | 79 | 1015.9 |
| 20260902171621 | 83 | 120 | 3.0 | 7.0 | 0.90 | 1.30 | 0.90 | 77 | 1016.2 |
| 20260902171102 | 86 | 108 | 1.0 | 5.0 | 0.55 | 0.95 | 0.55 | 74 | 1016.4 |
| 20260902170559 | 87 | 253 | 1.0 | 5.0 | 0.25 | 0.65 | 0.25 | 73 | 1016.3 |
| 20260902170103 | 88 | 221 | 0.0 | 4.0 | 0.00 | 0.40 | 0.00 | 71 | 1016.1 |
| 20260902165558 | 88 | 0 | 0.0 | 7.0 | 0.00 | 0.40 | 0.00 | 70 | 1016.0 |
| 20260902165101 | 88 | 98 | 0.0 | 7.0 | 0.00 | 0.40 | 0.00 | 70 | 1016.1 |
| 20260902164607 | 88 | 157 | 0.0 | 6.0 | 0.00 | 0.40 | 0.00 | 69 | 1016.1 |
| 20260902164058 | 89 | 0 | 2.0 | 8.0 | 0.00 | 0.40 | 0.00 | 69 | 1016.2 |
| 20260902163602 | 89 | 32 | 2.0 | 8.0 | 0.00 | 0.40 | 0.00 | 69 | 1016.2 |
| 20260902163103 | 89 | 85 | 0.0 | 4.0 | 0.00 | 0.40 | 0.00 | 70 | 1016.2 |
| 20260902162600 | 89 | 156 | 0.0 | 4.0 | 0.00 | 0.40 | 0.00 | 70 | 1016.2 |
| 20260902162102 | 88 | 0 | 1.0 | 4.0 | 0.00 | 0.40 | 0.00 | 70 | 1016.1 |
| 20260902161605 | 88 | 101 | 2.0 | 6.0 | 0.00 | 0.40 | 0.00 | 70 | 1016.2 |
| 20260902161058 | 89 | 132 | 1.0 | 8.0 | 0.00 | 0.40 | 0.00 | 69 | 1016.2 |
| 20260902160558 | 89 | 67 | 2.0 | 8.0 | 0.00 | 0.40 | 0.00 | 68 | 1016.2 |
| 20260902160106 | 90 | 84 | 3.0 | 7.0 | 0.00 | 0.40 | 0.00 | 68 | 1016.2 |
| 20260902155558 | 91 | 17 | 1.0 | 7.0 | 0.00 | 0.40 | 0.00 | 68 | 1016.3 |
| 20260902155058 | 91 | 103 | 0.0 | 8.0 | 0.00 | 0.40 | 0.00 | 68 | 1016.3 |
| 20260902154605 | 91 | 44 | 3.0 | 8.0 | 0.00 | 0.40 | 0.00 | 67 | 1016.4 |
| 20260902154058 | 91 | 99 | 2.0 | 4.0 | 0.00 | 0.40 | 0.00 | 68 | 1016.4 |
| 20260902153557 | 91 | 0 | 1.0 | 4.0 | 0.00 | 0.40 | 0.00 | 69 | 1016.5 |
| 20260902153104 | 90 | 0 | 0.0 | 0.0 | 0.00 | 0.40 | 0.00 | 68 | 1016.6 |
| 20260902152559 | 90 | 0 | 0.0 | 3.0 | 0.00 | 0.40 | 0.00 | 69 | 1016.5 |
| 20260902152101 | 89 | 0 | 0.0 | 3.0 | 0.00 | 0.40 | 0.00 | 68 | 1016.6 |
| 20260902151607 | 89 | 88 | 0.0 | 3.0 | 0.00 | 0.40 | 0.00 | 68 | 1016.7 |
| 20260902151059 | 89 | 0 | 0.0 | 3.0 | 0.00 | 0.40 | 0.00 | 70 | 1016.6 |
| 20260902150558 | 89 | 0 | 0.0 | 1.0 | 0.00 | 0.40 | 0.00 | 71 | 1016.6 |
| 20260902150113 | 88 | 0 | 0.0 | 2.0 | 0.00 | 0.40 | 0.00 | 71 | 1016.5 |
| 20260902145558 | 88 | 0 | 0.0 | 2.0 | 0.00 | 0.40 | 0.00 | 71 | 1016.6 |
| 20260902145058 | 88 | 0 | 0.0 | 0.0 | 0.00 | 0.40 | 0.00 | 71 | 1016.6 |
| 20260902144647 | 88 | 0 | 0.0 | 1.0 | 0.00 | 0.40 | 0.00 | 72 | 1016.5 |
| 20260902144059 | 87 | 0 | 0.0 | 4.0 | 0.00 | 0.40 | 0.00 | 73 | 1016.5 |
| 20260902143558 | 87 | 0 | 0.0 | 4.0 | 0.00 | 0.40 | 0.00 | 74 | 1016.5 |
| 20260902143103 | 87 | 0 | 1.0 | 4.0 | 0.00 | 0.40 | 0.00 | 76 | 1016.5 |
| 20260902142559 | 86 | 0 | 0.0 | 5.0 | 0.00 | 0.40 | 0.00 | 78 | 1016.4 |
| 20260902142101 | 86 | 15 | 2.0 | 5.0 | 0.00 | 0.40 | 0.00 | 80 | 1016.4 |
| 20260902141604 | 85 | 0 | 0.0 | 2.0 | 0.00 | 0.40 | 0.00 | 84 | 1016.4 |
| 20260902141059 | 84 | 0 | 0.0 | 2.0 | 0.00 | 0.40 | 0.00 | 85 | 1016.4 |
| 20260902140559 | 83 | 0 | 0.0 | 2.0 | 0.00 | 0.40 | 0.00 | 86 | 1016.4 |
| 20260902140105 | 82 | 0 | 0.0 | 1.0 | 0.00 | 0.40 | 0.00 | 88 | 1016.4 |
| 20260902135559 | 82 | 0 | 0.0 | 1.0 | 0.00 | 0.40 | 0.00 | 88 | 1016.2 |
| 20260902135059 | 82 | 0 | 0.0 | 2.0 | 0.00 | 0.40 | 0.00 | 89 | 1016.3 |
| 20260902134620 | 82 | 0 | 0.0 | 2.0 | 0.00 | 0.40 | 0.00 | 89 | 1016.3 |
| 20260902134058 | 81 | 0 | 0.0 | 3.0 | 0.00 | 0.40 | 0.00 | 89 | 1016.2 |
| 20260902133559 | 81 | 0 | 0.0 | 3.0 | 0.00 | 0.40 | 0.00 | 89 | 1016.3 |
| 20260902133102 | 81 | 5 | 0.0 | 3.0 | 0.00 | 0.40 | 0.00 | 90 | 1016.3 |
| 20260902132600 | 80 | 0 | 0.0 | 0.0 | 0.00 | 0.40 | 0.00 | 89 | 1016.4 |
| 20260902132059 | 80 | 0 | 0.0 | 0.0 | 0.00 | 0.40 | 0.00 | 90 | 1016.4 |
| 20260902131601 | 80 | 0 | 0.0 | 0.0 | 0.00 | 0.40 | 0.00 | 89 | 1016.4 |
| 20260902131059 | 80 | 0 | 0.0 | 0.0 | 0.00 | 0.40 | 0.00 | 89 | 1016.3 |
| 20260902130558 | 79 | 0 | 0.0 | 0.0 | 0.00 | 0.40 | 0.00 | 90 | 1016.3 |
| 20260902130106 | 79 | 0 | 0.0 | 0.0 | 0.00 | 0.40 | 0.00 | 89 | 1016.4 |
| 20260902125603 | 79 | 0 | 0.0 | 0.0 | 0.00 | 0.40 | 0.00 | 89 | 1016.4 |
| 20260902125100 | 79 | 0 | 0.0 | 0.0 | 0.00 | 0.40 | 0.00 | 89 | 1016.4 |
| 20260902124602 | 78 | 0 | 0.0 | 0.0 | 0.00 | 0.40 | 0.00 | 89 | 1016.2 |
| 20260902124102 | 78 | 0 | 0.0 | 0.0 | 0.00 | 0.40 | 0.00 | 89 | 1016.0 |
| 20260902123602 | 78 | 0 | 0.0 | 0.0 | 0.00 | 0.40 | 0.00 | 89 | 1016.0 |
| 20260902123102 | 78 | 0 | 0.0 | 0.0 | 0.00 | 0.40 | 0.00 | 89 | 1016.1 |
| 20260902122600 | 78 | 0 | 0.0 | 1.0 | 0.00 | 0.40 | 0.00 | 89 | 1016.0 |
| 20260902122100 | 78 | 0 | 0.0 | 2.0 | 0.00 | 0.40 | 0.00 | 89 | 1015.8 |
| 20260902121602 | 78 | 0 | 0.0 | 2.0 | 0.00 | 0.40 | 0.00 | 89 | 1015.8 |
| 20260902121100 | 77 | 0 | 0.0 | 0.0 | 0.00 | 0.40 | 0.00 | 89 | 1015.8 |
| 20260902120600 | 77 | 0 | 0.0 | 0.0 | 0.00 | 0.40 | 0.00 | 89 | 1015.7 |
| 20260902120107 | 77 | 0 | 0.0 | 0.0 | 0.00 | 0.40 | 0.00 | 89 | 1015.7 |
| 20260902115559 | 77 | 0 | 0.0 | 0.0 | 0.00 | 0.40 | 0.00 | 89 | 1015.9 |
| 20260902115104 | 77 | 0 | 0.0 | 0.0 | 0.00 | 0.40 | 0.00 | 89 | 1015.9 |
| 20260902114604 | 77 | 0 | 0.0 | 0.0 | 0.00 | 0.40 | 0.00 | 88 | 1015.9 |
| 20260902114102 | 76 | 0 | 0.0 | 0.0 | 0.00 | 0.40 | 0.00 | 88 | 1015.9 |
| 20260902113600 | 77 | 0 | 0.0 | 0.0 | 0.00 | 0.40 | 0.00 | 88 | 1015.9 |
| 20260902113110 | 77 | 0 | 0.0 | 0.0 | 0.00 | 0.40 | 0.00 | 88 | 1015.9 |
| 20260902112558 | 76 | 0 | 0.0 | 0.0 | 0.00 | 0.40 | 0.00 | 88 | 1016.0 |
| 20260902112059 | 76 | 0 | 0.0 | 0.0 | 0.00 | 0.40 | 0.00 | 88 | 1016.0 |
| 20260902111605 | 76 | 0 | 0.0 | 0.0 | 0.00 | 0.40 | 0.00 | 88 | 1016.0 |
| 20260902111100 | 76 | 0 | 0.0 | 0.0 | 0.00 | 0.40 | 0.00 | 88 | 1015.7 |
| 20260902110602 | 76 | 0 | 0.0 | 0.0 | 0.00 | 0.40 | 0.00 | 88 | 1015.8 |
| 20260902110105 | 76 | 0 | 0.0 | 0.0 | 0.00 | 0.40 | 0.00 | 88 | 1015.7 |
| 20260902105559 | 76 | 0 | 0.0 | 0.0 | 0.00 | 0.40 | 0.00 | 88 | 1015.5 |
| 20260902105059 | 76 | 0 | 0.0 | 0.0 | 0.00 | 0.40 | 0.00 | 88 | 1015.4 |
| 20260902104601 | 76 | 0 | 0.0 | 0.0 | 0.00 | 0.40 | 0.00 | 88 | 1015.4 |
| 20260902104100 | 76 | 0 | 0.0 | 0.0 | 0.00 | 0.40 | 0.00 | 88 | 1015.4 |
| 20260902103558 | 76 | 0 | 0.0 | 0.0 | 0.00 | 0.40 | 0.00 | 88 | 1015.3 |
| 20260902103108 | 76 | 0 | 0.0 | 0.0 | 0.00 | 0.40 | 0.00 | 88 | 1015.3 |
| 20260902102559 | 77 | 0 | 0.0 | 0.0 | 0.00 | 0.40 | 0.00 | 88 | 1015.4 |
| 20260902102100 | 77 | 0 | 0.0 | 0.0 | 0.00 | 0.40 | 0.00 | 88 | 1015.4 |
| 20260902101600 | 77 | 0 | 0.0 | 0.0 | 0.00 | 0.40 | 0.00 | 88 | 1015.4 |
| 20260902101100 | 77 | 0 | 0.0 | 0.0 | 0.00 | 0.40 | 0.00 | 88 | 1015.5 |
| 20260902100559 | 77 | 0 | 0.0 | 0.0 | 0.00 | 0.40 | 0.00 | 88 | 1015.5 |
| 20260902095558 | 77 | 0 | 0.0 | 0.0 | 0.00 | 0.40 | 0.00 | 88 | 1015.2 |
| 20260902095100 | 76 | 0 | 0.0 | 0.0 | 0.00 | 0.40 | 0.00 | 88 | 1014.9 |
| 20260902094605 | 76 | 0 | 0.0 | 0.0 | 0.00 | 0.40 | 0.00 | 88 | 1014.9 |
| 20260902094059 | 76 | 0 | 0.0 | 0.0 | 0.00 | 0.40 | 0.00 | 88 | 1014.9 |
| 20260902093559 | 77 | 0 | 0.0 | 0.0 | 0.00 | 0.40 | 0.00 | 88 | 1015.0 |
| 20260902093104 | 77 | 0 | 0.0 | 0.0 | 0.00 | 0.40 | 0.00 | 88 | 1014.8 |
| 20260902092601 | 77 | 0 | 0.0 | 0.0 | 0.00 | 0.40 | 0.00 | 88 | 1014.7 |
| 20260902092059 | 77 | 0 | 0.0 | 0.0 | 0.00 | 0.40 | 0.00 | 88 | 1014.8 |
| 20260902091605 | 77 | 0 | 0.0 | 0.0 | 0.00 | 0.40 | 0.00 | 88 | 1014.7 |
| 20260902091102 | 77 | 0 | 0.0 | 0.0 | 0.00 | 0.40 | 0.00 | 88 | 1014.7 |
| 20260902090604 | 77 | 0 | 0.0 | 0.0 | 0.00 | 0.40 | 0.00 | 88 | 1014.7 |
| 20260902090104 | 77 | 0 | 0.0 | 0.0 | 0.00 | 0.40 | 0.00 | 88 | 1014.8 |
| 20260902085559 | 77 | 0 | 0.0 | 0.0 | 0.00 | 0.40 | 0.00 | 87 | 1014.5 |
| 20260902085059 | 77 | 0 | 0.0 | 0.0 | 0.00 | 0.40 | 0.00 | 87 | 1014.6 |
| 20260902084614 | 77 | 0 | 0.0 | 0.0 | 0.00 | 0.40 | 0.00 | 87 | 1014.6 |
| 20260902084103 | 77 | 0 | 0.0 | 0.0 | 0.00 | 0.40 | 0.00 | 87 | 1014.6 |
| 20260902083559 | 77 | 0 | 0.0 | 0.0 | 0.00 | 0.40 | 0.00 | 87 | 1014.6 |
| 20260902083105 | 77 | 0 | 0.0 | 0.0 | 0.00 | 0.40 | 0.00 | 87 | 1014.7 |
| 20260902082600 | 77 | 0 | 0.0 | 0.0 | 0.00 | 0.40 | 0.00 | 87 | 1014.8 |
| 20260902082057 | 77 | 0 | 0.0 | 0.0 | 0.00 | 0.40 | 0.00 | 87 | 1014.7 |
| 20260902081610 | 77 | 0 | 0.0 | 0.0 | 0.00 | 0.40 | 0.00 | 87 | 1014.8 |
| 20260902081059 | 77 | 0 | 0.0 | 0.0 | 0.00 | 0.40 | 0.00 | 87 | 1014.8 |
| 20260902080600 | 77 | 0 | 0.0 | 0.0 | 0.00 | 0.40 | 0.00 | 87 | 1014.7 |
| 20260902075559 | 77 | 0 | 0.0 | 0.0 | 0.00 | 0.40 | 0.00 | 87 | 1014.7 |
| 20260902075103 | 77 | 0 | 0.0 | 0.0 | 0.00 | 0.40 | 0.00 | 87 | 1014.7 |
| 20260902074617 | 77 | 0 | 0.0 | 0.0 | 0.00 | 0.40 | 0.00 | 87 | 1014.9 |
| 20260902074100 | 77 | 0 | 0.0 | 0.0 | 0.00 | 0.40 | 0.00 | 87 | 1014.9 |
| 20260902073559 | 77 | 0 | 0.0 | 0.0 | 0.00 | 0.40 | 0.00 | 87 | 1014.9 |
| 20260902073104 | 77 | 0 | 0.0 | 0.0 | 0.00 | 0.40 | 0.00 | 87 | 1014.8 |
| 20260902072601 | 77 | 0 | 0.0 | 0.0 | 0.00 | 0.40 | 0.00 | 87 | 1014.9 |
| 20260902072103 | 77 | 0 | 0.0 | 0.0 | 0.00 | 0.40 | 0.00 | 87 | 1014.8 |
| 20260902071601 | 77 | 0 | 0.0 | 0.0 | 0.00 | 0.40 | 0.00 | 87 | 1014.9 |
| 20260902071059 | 77 | 0 | 0.0 | 0.0 | 0.00 | 0.40 | 0.00 | 87 | 1015.1 |
| 20260902070558 | 77 | 0 | 0.0 | 0.0 | 0.00 | 0.40 | 0.00 | 87 | 1015.1 |
| 20260902070106 | 77 | 0 | 0.0 | 0.0 | 0.00 | 0.40 | 0.00 | 87 | 1015.1 |
| 20260902065559 | 77 | 0 | 0.0 | 0.0 | 0.00 | 0.40 | 0.00 | 87 | 1015.1 |
| 20260902065100 | 77 | 0 | 0.0 | 0.0 | 0.00 | 0.40 | 0.00 | 87 | 1015.3 |
| 20260902064604 | 77 | 0 | 0.0 | 0.0 | 0.00 | 0.40 | 0.00 | 87 | 1015.2 |
| 20260902064101 | 77 | 0 | 0.0 | 0.0 | 0.00 | 0.40 | 0.00 | 87 | 1015.3 |
| 20260902063559 | 77 | 0 | 0.0 | 0.0 | 0.00 | 0.40 | 0.00 | 86 | 1015.3 |
| 20260902063117 | 77 | 0 | 0.0 | 0.0 | 0.00 | 0.40 | 0.00 | 86 | 1015.4 |
| 20260902062559 | 77 | 0 | 0.0 | 0.0 | 0.00 | 0.40 | 0.00 | 86 | 1015.3 |
| 20260902062059 | 77 | 0 | 0.0 | 0.0 | 0.00 | 0.40 | 0.00 | 86 | 1015.3 |
| 20260902061110 | 77 | 0 | 0.0 | 0.0 | 0.00 | 0.40 | 0.00 | 86 | 1015.4 |
| 20260902060600 | 77 | 0 | 0.0 | 0.0 | 0.00 | 0.40 | 0.00 | 86 | 1015.4 |
| 20260902060126 | 77 | 0 | 0.0 | 0.0 | 0.00 | 0.40 | 0.00 | 86 | 1015.5 |
| 20260902055559 | 77 | 0 | 0.0 | 0.0 | 0.00 | 0.41 | 0.00 | 86 | 1015.5 |
| 20260902055100 | 77 | 0 | 0.0 | 0.0 | 0.00 | 0.41 | 0.00 | 86 | 1015.6 |
| 20260902054610 | 77 | 0 | 0.0 | 0.0 | 0.00 | 0.41 | 0.00 | 86 | 1015.5 |
| 20260902054059 | 77 | 0 | 0.0 | 0.0 | 0.00 | 0.41 | 0.00 | 86 | 1015.5 |
| 20260902053559 | 78 | 0 | 0.0 | 0.0 | 0.00 | 0.41 | 0.00 | 86 | 1015.6 |
| 20260902053111 | 78 | 0 | 0.0 | 0.0 | 0.00 | 0.41 | 0.00 | 86 | 1015.6 |
| 20260902052559 | 78 | 0 | 0.0 | 0.0 | 0.00 | 0.41 | 0.00 | 86 | 1015.5 |
| 20260902052059 | 78 | 0 | 0.0 | 0.0 | 0.00 | 0.41 | 0.00 | 86 | 1015.5 |
| 20260902051608 | 78 | 0 | 0.0 | 0.0 | 0.00 | 0.41 | 0.00 | 86 | 1015.6 |
| 20260902051100 | 78 | 0 | 0.0 | 0.0 | 0.00 | 0.41 | 0.00 | 86 | 1015.6 |
| 20260902050600 | 78 | 0 | 0.0 | 0.0 | 0.00 | 0.41 | 0.00 | 86 | 1015.6 |
| 20260902050105 | 78 | 0 | 0.0 | 1.0 | 0.00 | 0.41 | 0.00 | 86 | 1015.8 |
| 20260902045559 | 78 | 0 | 0.0 | 1.0 | 0.00 | 0.41 | 0.00 | 85 | 1015.6 |
| 20260902045059 | 78 | 0 | 0.0 | 0.0 | 0.00 | 0.41 | 0.00 | 85 | 1015.6 |
| 20260902044610 | 78 | 0 | 0.0 | 0.0 | 0.00 | 0.41 | 0.00 | 85 | 1015.6 |
| 20260902044057 | 78 | 0 | 0.0 | 2.0 | 0.00 | 0.41 | 0.00 | 85 | 1015.6 |
| 20260902043557 | 78 | 0 | 0.0 | 2.0 | 0.00 | 0.41 | 0.00 | 85 | 1015.6 |
| 20260902043113 | 78 | 0 | 0.0 | 0.0 | 0.00 | 0.41 | 0.00 | 85 | 1015.7 |
| 20260902042600 | 78 | 0 | 0.0 | 0.0 | 0.00 | 0.41 | 0.00 | 85 | 1015.8 |
| 20260902042059 | 78 | 0 | 0.0 | 0.0 | 0.00 | 0.41 | 0.00 | 85 | 1015.9 |
| 20260902041608 | 78 | 0 | 0.0 | 0.0 | 0.00 | 0.41 | 0.00 | 85 | 1016.0 |
| 20260902041059 | 78 | 0 | 0.0 | 0.0 | 0.00 | 0.41 | 0.00 | 85 | 1016.1 |
| 20260902040559 | 78 | 0 | 0.0 | 0.0 | 0.00 | 0.41 | 0.00 | 84 | 1016.0 |
| 20260902040108 | 78 | 0 | 0.0 | 0.0 | 0.00 | 0.41 | 0.00 | 84 | 1016.0 |
| 20260902035559 | 78 | 0 | 0.0 | 0.0 | 0.00 | 0.41 | 0.41 | 84 | 1016.2 |
| 20260902035059 | 78 | 0 | 0.0 | 0.0 | 0.00 | 0.41 | 0.41 | 84 | 1016.1 |
| 20260902034614 | 78 | 0 | 0.0 | 1.0 | 0.00 | 0.41 | 0.41 | 84 | 1016.3 |
| 20260902034058 | 78 | 0 | 0.0 | 1.0 | 0.00 | 0.41 | 0.41 | 84 | 1016.4 |
| 20260902033559 | 78 | 0 | 0.0 | 1.0 | 0.00 | 0.41 | 0.41 | 84 | 1016.6 |
| 20260902033107 | 78 | 0 | 0.0 | 1.0 | 0.00 | 0.41 | 0.41 | 84 | 1016.6 |
| 20260902032559 | 78 | 0 | 0.0 | 0.0 | 0.00 | 0.41 | 0.41 | 84 | 1016.6 |
| 20260902032059 | 78 | 0 | 0.0 | 0.0 | 0.00 | 0.41 | 0.41 | 84 | 1016.6 |
| 20260902031606 | 78 | 0 | 0.0 | 1.0 | 0.00 | 0.41 | 0.41 | 84 | 1016.4 |
| 20260902031102 | 78 | 0 | 0.0 | 1.0 | 0.00 | 0.41 | 0.41 | 84 | 1016.4 |
| 20260902030638 | 79 | 352 | 0.0 | 0.0 | 0.00 | 0.41 | 0.41 | 83 | 1016.6 |
| 20260902030105 | 79 | 0 | 0.0 | 0.0 | 0.00 | 0.41 | 0.41 | 83 | 1016.7 |
| 20260902025600 | 79 | 0 | 0.0 | 0.0 | 0.00 | 0.41 | 0.41 | 83 | 1016.4 |
| 20260902025102 | 79 | 0 | 0.0 | 0.0 | 0.00 | 0.41 | 0.41 | 83 | 1016.4 |
| 20260902024601 | 79 | 0 | 0.0 | 0.0 | 0.00 | 0.41 | 0.41 | 83 | 1016.4 |
| 20260902024057 | 79 | 0 | 0.0 | 2.0 | 0.00 | 0.41 | 0.41 | 83 | 1016.5 |
| 20260902023559 | 79 | 0 | 0.0 | 2.0 | 0.00 | 0.41 | 0.41 | 83 | 1016.4 |
| 20260902023108 | 79 | 0 | 0.0 | 0.0 | 0.00 | 0.41 | 0.41 | 83 | 1016.4 |
| 20260902022558 | 79 | 0 | 0.0 | 1.0 | 0.00 | 0.41 | 0.41 | 83 | 1016.4 |
| 20260902022102 | 79 | 0 | 0.0 | 1.0 | 0.00 | 0.41 | 0.41 | 83 | 1016.3 |
| 20260902021609 | 79 | 0 | 0.0 | 1.0 | 0.00 | 0.41 | 0.41 | 82 | 1016.3 |
| 20260902021059 | 79 | 0 | 0.0 | 0.0 | 0.00 | 0.41 | 0.41 | 82 | 1016.3 |
| 20260902020558 | 79 | 0 | 0.0 | 0.0 | 0.00 | 0.41 | 0.41 | 82 | 1016.2 |
| 20260902020103 | 79 | 0 | 0.0 | 0.0 | 0.00 | 0.41 | 0.41 | 82 | 1016.1 |
| 20260902015557 | 79 | 0 | 0.0 | 0.0 | 0.00 | 0.41 | 0.41 | 82 | 1016.3 |
| 20260902015059 | 79 | 0 | 0.0 | 0.0 | 0.00 | 0.41 | 0.41 | 82 | 1016.2 |
| 20260902014607 | 79 | 0 | 0.0 | 0.0 | 0.00 | 0.41 | 0.41 | 82 | 1016.3 |
| 20260902014058 | 79 | 0 | 0.0 | 0.0 | 0.00 | 0.41 | 0.41 | 82 | 1016.2 |
| 20260902013559 | 79 | 0 | 0.0 | 0.0 | 0.00 | 0.41 | 0.41 | 82 | 1016.1 |
| 20260902013106 | 79 | 0 | 0.0 | 0.0 | 0.00 | 0.41 | 0.41 | 81 | 1015.9 |
| 20260902012558 | 79 | 0 | 0.0 | 0.0 | 0.00 | 0.41 | 0.41 | 81 | 1015.9 |
| 20260902012058 | 79 | 0 | 0.0 | 1.0 | 0.00 | 0.41 | 0.41 | 81 | 1015.8 |
| 20260902011602 | 79 | 0 | 0.0 | 1.0 | 0.00 | 0.41 | 0.41 | 81 | 1015.8 |
| 20260902011058 | 79 | 0 | 0.0 | 0.0 | 0.00 | 0.41 | 0.41 | 81 | 1015.9 |
| 20260902010557 | 79 | 0 | 0.0 | 0.0 | 0.00 | 0.41 | 0.41 | 81 | 1015.8 |
| 20260902010106 | 80 | 0 | 0.0 | 5.0 | 0.00 | 0.41 | 0.41 | 81 | 1015.7 |
| 20260902005557 | 80 | 0 | 0.0 | 5.0 | 0.00 | 0.41 | 0.41 | 81 | 1015.9 |
| 20260902005100 | 80 | 236 | 2.0 | 6.0 | 0.00 | 0.41 | 0.41 | 81 | 1015.9 |
| 20260902004609 | 80 | 0 | 1.0 | 6.0 | 0.00 | 0.41 | 0.41 | 80 | 1015.9 |
| 20260902004058 | 80 | 254 | 1.0 | 5.0 | 0.00 | 0.41 | 0.41 | 80 | 1015.7 |
| 20260902003600 | 80 | 232 | 1.0 | 4.0 | 0.00 | 0.41 | 0.41 | 80 | 1015.6 |
| 20260902003135 | 81 | 267 | 1.0 | 4.0 | 0.00 | 0.41 | 0.41 | 79 | 1015.5 |
| 20260902002601 | 81 | 240 | 0.0 | 4.0 | 0.00 | 0.41 | 0.41 | 79 | 1015.6 |
| 20260902002058 | 81 | 252 | 0.0 | 7.0 | 0.00 | 0.41 | 0.41 | 79 | 1015.4 |
| 20260902001606 | 81 | 257 | 0.0 | 7.0 | 0.00 | 0.41 | 0.41 | 78 | 1015.6 |
| 20260902001056 | 82 | 251 | 1.0 | 6.0 | 0.00 | 0.41 | 0.41 | 78 | 1015.7 |
| 20260902000558 | 82 | 0 | 0.0 | 1.0 | 0.00 | 0.41 | 0.41 | 78 | 1015.7 |
| 20260902000105 | 82 | 0 | 0.0 | 1.0 | 0.00 | 0.41 | 0.41 | 78 | 1015.6 |
| 20260901235601 | 83 | 0 | 0.0 | 1.0 | 0.00 | 0.41 | 0.41 | 78 | 1015.8 |
| 20260901235101 | 83 | 0 | 0.0 | 3.0 | 0.00 | 0.41 | 0.41 | 78 | 1015.7 |
| 20260901234610 | 83 | 0 | 0.0 | 3.0 | 0.00 | 0.41 | 0.41 | 78 | 1015.7 |
| 20260901234058 | 84 | 0 | 0.0 | 3.0 | 0.00 | 0.41 | 0.41 | 78 | 1015.8 |
| 20260901233558 | 84 | 0 | 0.0 | 0.0 | 0.00 | 0.41 | 0.41 | 79 | 1015.8 |
| 20260901233127 | 84 | 0 | 0.0 | 0.0 | 0.00 | 0.41 | 0.41 | 78 | 1015.8 |
| 20260901232558 | 84 | 0 | 0.0 | 0.0 | 0.00 | 0.41 | 0.41 | 78 | 1016.0 |
| 20260901232058 | 84 | 0 | 0.0 | 0.0 | 0.00 | 0.41 | 0.41 | 78 | 1016.0 |
| 20260901231607 | 84 | 0 | 0.0 | 0.0 | 0.00 | 0.41 | 0.41 | 78 | 1015.9 |
| 20260901231058 | 85 | 0 | 0.0 | 0.0 | 0.00 | 0.41 | 0.41 | 78 | 1015.8 |
| 20260901230559 | 85 | 0 | 0.0 | 0.0 | 0.00 | 0.41 | 0.41 | 77 | 1015.7 |
| 20260901230110 | 85 | 0 | 0.0 | 0.0 | 0.00 | 0.41 | 0.41 | 77 | 1015.7 |
| 20260901225557 | 85 | 0 | 0.0 | 3.0 | 0.00 | 0.41 | 0.41 | 76 | 1015.6 |
| 20260901225057 | 85 | 0 | 0.0 | 4.0 | 0.00 | 0.41 | 0.41 | 76 | 1015.4 |
| 20260901224606 | 85 | 103 | 0.0 | 4.0 | 0.00 | 0.41 | 0.41 | 75 | 1015.3 |
| 20260901224059 | 85 | 0 | 1.0 | 6.0 | 0.00 | 0.41 | 0.41 | 75 | 1015.4 |
| 20260901223558 | 85 | 23 | 2.0 | 6.0 | 0.00 | 0.41 | 0.41 | 74 | 1015.5 |
| 20260901223105 | 85 | 65 | 0.0 | 4.0 | 0.00 | 0.41 | 0.41 | 74 | 1015.5 |
| 20260901222558 | 85 | 5 | 0.0 | 5.0 | 0.00 | 0.41 | 0.41 | 74 | 1015.4 |
| 20260901222057 | 86 | 0 | 1.0 | 8.0 | 0.00 | 0.41 | 0.41 | 74 | 1015.4 |
| 20260901221619 | 86 | 0 | 1.0 | 8.0 | 0.00 | 0.41 | 0.41 | 73 | 1015.8 |
| 20260901221059 | 86 | 55 | 1.0 | 8.0 | 0.00 | 0.41 | 0.41 | 73 | 1015.8 |
| 20260901220558 | 86 | 86 | 2.0 | 7.0 | 0.00 | 0.41 | 0.41 | 73 | 1015.6 |
| 20260901220109 | 87 | 107 | 1.0 | 6.0 | 0.00 | 0.41 | 0.41 | 73 | 1015.6 |
| 20260901215558 | 87 | 26 | 2.0 | 7.0 | 0.00 | 0.41 | 0.41 | 73 | 1015.4 |
| 20260901215056 | 87 | 58 | 1.0 | 7.0 | 0.00 | 0.41 | 0.41 | 73 | 1015.3 |
| 20260901214603 | 87 | 44 | 2.0 | 7.0 | 0.00 | 0.41 | 0.41 | 74 | 1015.3 |
| 20260901214057 | 86 | 338 | 1.0 | 8.0 | 0.00 | 0.41 | 0.41 | 74 | 1015.2 |
| 20260901213600 | 86 | 74 | 3.0 | 8.0 | 0.00 | 0.41 | 0.41 | 73 | 1015.0 |
| 20260901213109 | 86 | 19 | 3.0 | 8.0 | 0.00 | 0.41 | 0.41 | 74 | 1015.1 |
| 20260901212603 | 86 | 98 | 2.0 | 7.0 | 0.00 | 0.41 | 0.41 | 75 | 1015.1 |
| 20260901212058 | 86 | 49 | 1.0 | 4.0 | 0.00 | 0.41 | 0.41 | 76 | 1015.1 |
| 20260901211603 | 86 | 136 | 0.0 | 6.0 | 0.00 | 0.41 | 0.41 | 77 | 1015.0 |
| 20260901211103 | 85 | 0 | 2.0 | 6.0 | 0.00 | 0.41 | 0.41 | 77 | 1015.0 |
| 20260901210607 | 85 | 27 | 1.0 | 7.0 | 0.00 | 0.41 | 0.41 | 78 | 1015.0 |
| 20260901210131 | 85 | 67 | 2.0 | 7.0 | 0.00 | 0.41 | 0.41 | 78 | 1014.9 |
| 20260901205558 | 85 | 141 | 1.0 | 6.0 | 0.00 | 0.41 | 0.41 | 80 | 1014.6 |
| 20260901205059 | 85 | 38 | 2.0 | 5.0 | 0.00 | 0.41 | 0.41 | 80 | 1014.3 |
| 20260901204605 | 85 | 0 | 1.0 | 7.0 | 0.00 | 0.41 | 0.41 | 81 | 1014.1 |
| 20260901204058 | 84 | 55 | 0.0 | 7.0 | 0.00 | 0.41 | 0.41 | 82 | 1014.0 |
| 20260901203558 | 84 | 44 | 2.0 | 7.0 | 0.00 | 0.41 | 0.41 | 83 | 1014.0 |
| 20260901203104 | 84 | 75 | 2.0 | 5.0 | 0.00 | 0.41 | 0.41 | 84 | 1014.2 |
| 20260901202557 | 83 | 109 | 0.0 | 3.0 | 0.01 | 0.41 | 0.41 | 85 | 1014.2 |
| 20260901202101 | 83 | 108 | 0.0 | 4.0 | 0.05 | 0.41 | 0.41 | 85 | 1014.3 |
| 20260901201606 | 83 | 102 | 2.0 | 4.0 | 0.11 | 0.41 | 0.41 | 85 | 1014.4 |
| 20260901201058 | 83 | 0 | 0.0 | 4.0 | 0.13 | 0.41 | 0.41 | 86 | 1014.5 |
| 20260901200603 | 83 | 0 | 0.0 | 4.0 | 0.17 | 0.41 | 0.41 | 85 | 1014.6 |
| 20260901200107 | 83 | 0 | 1.0 | 4.0 | 0.34 | 0.41 | 0.41 | 85 | 1014.6 |
| 20260901195557 | 83 | 0 | 0.0 | 1.0 | 0.40 | 0.41 | 0.41 | 85 | 1014.7 |
| 20260901195059 | 83 | 0 | 0.0 | 1.0 | 0.40 | 0.41 | 0.41 | 85 | 1014.9 |
| 20260901194607 | 82 | 0 | 0.0 | 2.0 | 0.40 | 0.41 | 0.41 | 85 | 1015.1 |
| 20260901194101 | 82 | 0 | 0.0 | 2.0 | 0.40 | 0.41 | 0.41 | 84 | 1015.3 |
| 20260901193602 | 82 | 0 | 0.0 | 3.0 | 0.40 | 0.41 | 0.41 | 84 | 1015.4 |
| 20260901193109 | 82 | 0 | 0.0 | 3.0 | 0.40 | 0.41 | 0.41 | 82 | 1015.5 |
| 20260901192559 | 82 | 122 | 0.0 | 3.0 | 0.39 | 0.40 | 0.40 | 81 | 1015.5 |
| 20260901192058 | 82 | 0 | 0.0 | 3.0 | 0.35 | 0.36 | 0.36 | 80 | 1015.7 |
| 20260901191614 | 83 | 0 | 0.0 | 3.0 | 0.29 | 0.30 | 0.30 | 79 | 1015.8 |
| 20260901191100 | 83 | 0 | 0.0 | 3.0 | 0.27 | 0.28 | 0.28 | 78 | 1015.9 |
| 20260901190600 | 83 | 0 | 0.0 | 5.0 | 0.23 | 0.24 | 0.24 | 77 | 1015.9 |
| 20260901190135 | 83 | 0 | 0.0 | 6.0 | 0.06 | 0.07 | 0.07 | 75 | 1016.1 |
| 20260901185600 | 84 | 34 | 0.0 | 10.0 | 0.00 | 0.01 | 0.01 | 73 | 1016.0 |
| 20260901185059 | 84 | 315 | 3.0 | 11.0 | 0.00 | 0.01 | 0.01 | 72 | 1016.2 |
| 20260901184605 | 85 | 48 | 4.0 | 11.0 | 0.00 | 0.01 | 0.01 | 71 | 1016.2 |
| 20260901184058 | 87 | 17 | 3.0 | 9.0 | 0.00 | 0.01 | 0.01 | 73 | 1016.3 |
| 20260901183557 | 87 | 38 | 1.0 | 7.0 | 0.00 | 0.01 | 0.01 | 74 | 1016.0 |
| 20260901183108 | 87 | 336 | 2.0 | 6.0 | 0.00 | 0.01 | 0.01 | 74 | 1016.1 |